CW3109 Weather Reports


time (UTC)temp
C
wind
direction
speed
KPH
gust
KPH
rain 1hr
cm
rain 24hr
cm
rain mn
cm
humidity
%
barometer
mb
20211017165404 17 323 3.2 4.8 0.00 0.00 0.00 58 1011.9
20211017164903 17 344 1.6 4.8 0.00 0.00 0.00 59 1011.9
20211017164405 16 354 3.2 8.0 0.00 0.00 0.00 59 1011.8
20211017163904 16 300 3.2 9.7 0.00 0.00 0.00 58 1011.8
20211017163404 16 28 3.2 4.8 0.00 0.00 0.00 58 1011.8
20211017162906 16 324 1.6 4.8 0.00 0.00 0.00 59 1011.8
20211017162404 15 327 1.6 4.8 0.00 0.00 0.00 59 1011.8
20211017161904 15 343 3.2 8.0 0.00 0.00 0.00 60 1011.8
20211017161405 15 305 1.6 4.8 0.00 0.00 0.00 61 1011.7
20211017160905 14 282 3.2 4.8 0.00 0.00 0.00 62 1011.7
20211017160406 13 267 3.2 4.8 0.00 0.00 0.00 64 1011.7
20211017155904 13 355 1.6 3.2 0.00 0.00 0.00 64 1011.3
20211017155404 12 7 0.0 1.6 0.00 0.00 0.00 64 1011.3
20211017154906 12 7 0.0 3.2 0.00 0.00 0.00 62 1011.3
20211017154404 11 18 0.0 1.6 0.00 0.00 0.00 59 1011.2
20211017153904 11 18 0.0 3.2 0.00 0.00 0.00 57 1011.2
20211017153406 11 22 0.0 3.2 0.00 0.00 0.00 56 1011.2
20211017152904 11 31 1.6 3.2 0.00 0.00 0.00 57 1010.7
20211017152404 11 41 0.0 0.0 0.00 0.00 0.00 58 1010.7
20211017151906 11 41 1.6 4.8 0.00 0.00 0.00 57 1010.7
20211017151404 11 41 3.2 4.8 0.00 0.00 0.00 57 1010.9
20211017150904 10 6 0.0 1.6 0.00 0.00 0.00 59 1010.9
20211017150406 10 5 1.6 3.2 0.00 0.00 0.00 59 1010.9
20211017145904 10 355 0.0 1.6 0.00 0.00 0.00 60 1010.8
20211017145404 10 355 0.0 0.0 0.00 0.00 0.00 61 1010.8
20211017144905 10 355 0.0 1.6 0.00 0.00 0.00 62 1010.8
20211017144404 10 355 1.6 3.2 0.00 0.00 0.00 62 1010.7
20211017143904 10 0 0.0 1.6 0.00 0.00 0.00 63 1010.7
20211017143406 10 310 1.6 3.2 0.00 0.00 0.00 64 1010.7
20211017142904 10 310 0.0 1.6 0.00 0.00 0.00 64 1010.7
20211017142404 10 310 0.0 1.6 0.00 0.00 0.00 65 1010.7
20211017141906 10 310 1.6 3.2 0.00 0.00 0.00 66 1010.7
20211017141404 10 310 0.0 0.0 0.00 0.00 0.00 66 1010.3
20211017140904 10 310 0.0 0.0 0.00 0.00 0.00 66 1010.3
20211017140405 10 310 0.0 3.2 0.00 0.00 0.00 67 1010.3
20211017135904 10 310 0.0 1.6 0.00 0.00 0.00 67 1010.3
20211017135404 9 310 0.0 0.0 0.00 0.00 0.00 67 1010.3
20211017134906 9 310 0.0 0.0 0.00 0.00 0.00 66 1010.3
20211017134404 10 310 0.0 0.0 0.00 0.00 0.00 66 1010.2
20211017133904 10 310 0.0 0.0 0.00 0.00 0.00 66 1010.2
20211017133405 10 310 0.0 1.6 0.00 0.00 0.00 66 1010.2
20211017132904 10 310 0.0 1.6 0.00 0.00 0.00 67 1010.2
20211017132404 10 310 0.0 1.6 0.00 0.00 0.00 66 1010.2
20211017131906 10 310 0.0 0.0 0.00 0.00 0.00 67 1010.2
20211017131404 10 310 1.6 1.6 0.00 0.00 0.00 67 1010.1
20211017130904 10 310 0.0 1.6 0.00 0.00 0.00 67 1010.1
20211017130406 10 310 0.0 1.6 0.00 0.00 0.00 66 1010.1
20211017125904 10 310 0.0 3.2 0.00 0.00 0.00 66 1010.2
20211017125404 10 310 1.6 3.2 0.00 0.00 0.00 66 1010.2
20211017124906 10 310 0.0 3.2 0.00 0.00 0.00 68 1010.2
20211017124404 10 310 1.6 4.8 0.00 0.00 0.00 69 1010.4
20211017123904 9 304 1.6 3.2 0.00 0.00 0.00 71 1010.4
20211017123405 10 304 0.0 0.0 0.00 0.00 0.00 72 1010.4
20211017122904 10 304 0.0 0.0 0.00 0.00 0.00 72 1010.3
20211017122404 10 304 0.0 0.0 0.00 0.00 0.00 72 1010.3
20211017121906 10 304 0.0 1.6 0.00 0.00 0.00 72 1010.3
20211017121404 10 304 0.0 1.6 0.00 0.00 0.00 72 1010.2
20211017120904 10 304 0.0 1.6 0.00 0.00 0.00 71 1010.2
20211017120406 10 304 1.6 3.2 0.00 0.00 0.00 71 1010.2
20211017115904 10 304 0.0 0.0 0.00 0.00 0.00 72 1010.3
20211017115403 10 304 0.0 0.0 0.00 0.00 0.00 72 1010.3
20211017114906 10 304 0.0 0.0 0.00 0.00 0.00 72 1010.3
20211017114404 10 304 0.0 0.0 0.00 0.00 0.00 71 1010.5
20211017113904 10 304 0.0 1.6 0.00 0.00 0.00 71 1010.5
20211017113405 10 304 0.0 3.2 0.00 0.00 0.00 71 1010.5
20211017112903 10 304 0.0 3.2 0.00 0.00 0.00 71 1010.6
20211017112404 10 304 0.0 0.0 0.00 0.00 0.00 71 1010.6
20211017111905 10 304 0.0 1.6 0.00 0.00 0.00 71 1010.6
20211017111404 10 304 0.0 0.0 0.00 0.00 0.00 71 1010.7
20211017110904 10 304 0.0 1.6 0.00 0.00 0.00 72 1010.7
20211017110405 10 304 0.0 0.0 0.00 0.00 0.00 71 1010.7
20211017105903 10 304 0.0 1.6 0.00 0.00 0.00 71 1010.7
20211017105404 10 304 0.0 0.0 0.00 0.00 0.00 71 1010.7
20211017104906 10 304 0.0 0.0 0.00 0.00 0.00 71 1010.7
20211017104404 10 304 0.0 0.0 0.00 0.00 0.00 71 1010.8
20211017103904 10 304 0.0 0.0 0.00 0.00 0.00 71 1010.8
20211017103405 10 304 0.0 0.0 0.00 0.00 0.00 71 1010.8
20211017102904 10 304 0.0 0.0 0.00 0.00 0.00 70 1010.8
20211017102404 10 304 0.0 0.0 0.00 0.00 0.00 70 1010.8
20211017101906 10 304 0.0 0.0 0.00 0.00 0.00 70 1010.8
20211017101404 10 304 0.0 1.6 0.00 0.00 0.00 70 1011.1
20211017100904 10 304 0.0 0.0 0.00 0.00 0.00 70 1011.1
20211017100405 11 304 0.0 0.0 0.00 0.00 0.00 70 1011.1
20211017095904 11 304 0.0 0.0 0.00 0.00 0.00 69 1011.1
20211017095403 11 304 0.0 1.6 0.00 0.00 0.00 70 1011.1
20211017094905 11 304 1.6 3.2 0.00 0.00 0.00 69 1011.1
20211017094404 11 304 0.0 3.2 0.00 0.00 0.00 69 1011.3
20211017093904 11 304 0.0 3.2 0.00 0.00 0.00 69 1011.3
20211017093405 11 304 1.6 3.2 0.00 0.00 0.00 69 1011.3
20211017092904 11 304 0.0 1.6 0.00 0.00 0.00 69 1011.5
20211017092403 11 304 0.0 3.2 0.00 0.00 0.00 69 1011.5
20211017091906 11 304 0.0 1.6 0.00 0.00 0.00 69 1011.5
20211017091404 11 304 0.0 1.6 0.00 0.00 0.00 68 1011.6
20211017090904 12 304 0.0 3.2 0.00 0.00 0.00 69 1011.6
20211017090406 12 304 0.0 0.0 0.00 0.00 0.00 68 1011.6
20211017085904 12 304 0.0 1.6 0.00 0.00 0.00 68 1011.6
20211017085404 12 304 1.6 3.2 0.00 0.00 0.00 68 1011.6
20211017084906 12 320 0.0 0.0 0.00 0.00 0.00 68 1011.6
20211017084404 12 320 0.0 0.0 0.00 0.00 0.00 67 1011.6
20211017083904 12 321 0.0 0.0 0.00 0.00 0.00 67 1011.6
20211017083405 12 321 0.0 0.0 0.00 0.00 0.00 67 1011.6
20211017082904 12 320 0.0 0.0 0.00 0.00 0.00 67 1011.6
20211017082403 12 320 0.0 0.0 0.00 0.00 0.00 67 1011.6
20211017081906 12 320 0.0 0.0 0.00 0.00 0.00 67 1011.6
20211017081404 12 320 0.0 3.2 0.00 0.00 0.00 67 1011.7
20211017080904 12 320 0.0 1.6 0.00 0.00 0.00 67 1011.7
20211017080406 12 320 0.0 0.0 0.00 0.00 0.00 67 1011.7
20211017075903 12 320 0.0 1.6 0.00 0.00 0.00 66 1011.7
20211017075403 12 320 0.0 0.0 0.00 0.00 0.00 66 1011.7
20211017074906 13 320 0.0 0.0 0.00 0.00 0.00 66 1011.7
20211017074404 13 320 1.6 3.2 0.00 0.00 0.00 66 1011.8
20211017073904 13 321 0.0 0.0 0.00 0.00 0.00 66 1011.8
20211017073405 13 321 0.0 0.0 0.00 0.00 0.00 66 1011.8
20211017072904 13 321 0.0 0.0 0.00 0.00 0.00 65 1012.1
20211017072403 13 321 0.0 0.0 0.00 0.00 0.00 65 1012.1
20211017071905 13 321 0.0 0.0 0.00 0.00 0.00 65 1012.1
20211017071404 13 321 0.0 0.0 0.00 0.00 0.00 64 1012.1
20211017070904 13 321 0.0 0.0 0.00 0.00 0.00 64 1012.1
20211017070406 13 321 0.0 0.0 0.00 0.00 0.00 63 1012.1
20211017065904 13 321 0.0 0.0 0.00 0.00 0.00 62 1012.2
20211017065404 13 321 0.0 0.0 0.00 0.00 0.00 62 1012.2
20211017064905 13 321 0.0 0.0 0.00 0.00 0.00 60 1012.2
20211017064404 13 321 0.0 0.0 0.00 0.00 0.00 60 1012.2
20211017063904 13 321 0.0 0.0 0.00 0.00 0.00 59 1012.2
20211017063405 13 321 0.0 0.0 0.00 0.00 0.00 58 1012.2
20211017062904 13 321 0.0 0.0 0.00 0.00 0.00 58 1012.3
20211017062404 13 321 0.0 0.0 0.00 0.00 0.00 57 1012.3
20211017061905 13 321 0.0 0.0 0.00 0.00 0.00 57 1012.3
20211017061404 13 321 0.0 0.0 0.00 0.00 0.00 56 1012.2
20211017060904 14 321 0.0 0.0 0.00 0.00 0.00 55 1012.2
20211017060405 14 321 0.0 0.0 0.00 0.00 0.00 55 1012.2
20211017055904 14 321 0.0 0.0 0.00 0.00 0.00 54 1012.2
20211017055404 14 321 0.0 0.0 0.00 0.00 0.00 53 1012.2
20211017054905 14 321 0.0 0.0 0.00 0.00 0.00 53 1012.2
20211017054404 15 321 0.0 0.0 0.00 0.00 0.00 52 1012.2
20211017053904 15 321 0.0 1.6 0.00 0.00 0.00 52 1012.2
20211017053405 15 321 0.0 3.2 0.00 0.00 0.00 51 1012.2
20211017052904 15 321 0.0 0.0 0.00 0.00 0.00 50 1012.3
20211017052404 15 321 0.0 0.0 0.00 0.00 0.00 50 1012.3
20211017051905 15 321 0.0 0.0 0.00 0.00 0.00 49 1012.3
20211017051403 15 321 0.0 4.8 0.00 0.00 0.00 48 1012.2
20211017050904 16 319 1.6 4.8 0.00 0.00 0.00 47 1012.2
20211017050406 16 318 0.0 3.2 0.00 0.00 0.00 46 1012.2
20211017045904 16 321 1.6 3.2 0.00 0.00 0.00 45 1012.1
20211017045404 16 321 0.0 1.6 0.00 0.00 0.00 44 1012.1
20211017044906 16 321 1.6 4.8 0.00 0.00 0.00 44 1012.1
20211017044404 16 354 1.6 3.2 0.00 0.00 0.00 44 1011.9
20211017043904 16 354 0.0 0.0 0.00 0.00 0.00 43 1011.9
20211017043405 16 354 0.0 0.0 0.00 0.00 0.00 43 1011.9
20211017042904 16 354 0.0 0.0 0.00 0.00 0.00 43 1011.8
20211017042404 17 354 0.0 0.0 0.00 0.00 0.00 42 1011.8
20211017041906 17 354 0.0 1.6 0.00 0.00 0.00 42 1011.8
20211017041404 17 354 0.0 1.6 0.00 0.00 0.00 41 1011.7
20211017040904 17 354 1.6 3.2 0.00 0.00 0.00 40 1011.7
20211017040405 18 351 0.0 0.0 0.00 0.00 0.00 38 1011.7
20211017035904 18 351 0.0 0.0 0.00 0.00 0.00 38 1011.8
20211017035404 18 351 0.0 0.0 0.00 0.00 0.00 36 1011.8
20211017034906 18 351 0.0 0.0 0.00 0.00 0.00 35 1011.8
20211017034404 18 351 0.0 1.6 0.00 0.00 0.00 35 1011.9
20211017033904 18 351 0.0 1.6 0.00 0.00 0.00 36 1011.9
20211017033405 19 351 0.0 1.6 0.00 0.00 0.00 37 1011.9
20211017032904 19 351 1.6 1.6 0.00 0.00 0.00 36 1011.9
20211017032404 19 351 0.0 0.0 0.00 0.00 0.00 36 1011.9
20211017031906 20 351 0.0 0.0 0.00 0.00 0.00 36 1011.9
20211017031404 20 351 0.0 1.6 0.00 0.00 0.00 35 1011.8
20211017030904 20 351 1.6 3.2 0.00 0.00 0.00 34 1011.8
20211017030405 20 352 0.0 4.8 0.00 0.00 0.00 34 1011.8
20211017025903 20 261 4.8 4.8 0.00 0.00 0.00 34 1011.9
20211017025404 20 302 1.6 1.6 0.00 0.00 0.00 35 1011.9
20211017024906 20 302 1.6 1.6 0.00 0.00 0.00 33 1011.9
20211017024405 21 302 0.0 0.0 0.00 0.00 0.00 32 1011.9
20211017023904 21 302 0.0 1.6 0.00 0.00 0.00 30 1011.9
20211017023406 21 302 0.0 0.0 0.00 0.00 0.00 30 1011.9
20211017022904 21 302 0.0 0.0 0.00 0.00 0.00 29 1011.8
20211017022404 22 302 0.0 0.0 0.00 0.00 0.00 28 1011.8
20211017021906 22 302 1.6 4.8 0.00 0.00 0.00 27 1011.8
20211017021404 22 302 1.6 3.2 0.00 0.00 0.00 27 1011.6
20211017020904 22 302 0.0 1.6 0.00 0.00 0.00 27 1011.6
20211017020405 22 302 0.0 0.0 0.00 0.00 0.00 28 1011.6
20211017015904 22 302 0.0 0.0 0.00 0.00 0.00 27 1011.5
20211017015404 23 302 0.0 1.6 0.00 0.00 0.00 26 1011.5
20211017014905 23 302 0.0 1.6 0.00 0.00 0.00 26 1011.5
20211017014404 23 302 0.0 1.6 0.00 0.00 0.00 25 1011.4
20211017013904 23 302 0.0 3.2 0.00 0.00 0.00 24 1011.4
20211017013406 24 302 1.6 4.8 0.00 0.00 0.00 24 1011.4
20211017012904 24 311 1.6 19.3 0.00 0.00 0.00 24 1011.3
20211017002905 27 261 9.7 20.9 0.00 0.00 0.00 22 1011.1
20211017002405 27 269 8.0 16.1 0.00 0.00 0.00 21 1011.1
20211017001904 27 289 8.0 19.3 0.00 0.00 0.00 23 1011.1
20211017001403 27 263 12.9 22.5 0.00 0.00 0.00 23 1011.1
20211017000905 27 268 9.7 19.3 0.00 0.00 0.00 22 1011.1
20211017000403 27 297 8.0 19.3 0.00 0.00 0.00 22 1011.1
20211016235904 27 274 9.7 19.3 0.00 0.00 0.00 22 1011.2
20211016235405 27 273 8.0 19.3 0.00 0.00 0.00 22 1011.2
20211016234904 27 270 9.7 19.3 0.00 0.00 0.00 21 1011.2
20211016234404 27 266 11.3 19.3 0.00 0.00 0.00 22 1011.2
20211016233905 27 280 9.7 19.3 0.00 0.00 0.00 24 1011.2
20211016233404 27 280 9.7 19.3 0.00 0.00 0.00 24 1011.2
20211016232904 27 271 9.7 14.5 0.00 0.00 0.00 25 1011.2
20211016232405 28 274 8.0 16.1 0.00 0.00 0.00 23 1011.2
20211016231904 28 249 9.7 19.3 0.00 0.00 0.00 21 1011.2
20211016231404 28 258 9.7 14.5 0.00 0.00 0.00 22 1011.2
20211016230906 28 279 4.8 11.3 0.00 0.00 0.00 19 1011.2
20211016230403 28 258 9.7 16.1 0.00 0.00 0.00 22 1011.2
20211016225904 28 274 9.7 16.1 0.00 0.00 0.00 19 1011.2
20211016225406 28 280 4.8 12.9 0.00 0.00 0.00 20 1011.2
20211016224904 28 291 6.4 14.5 0.00 0.00 0.00 20 1011.2
20211016224404 28 274 4.8 9.7 0.00 0.00 0.00 21 1011.3
20211016223906 28 270 6.4 11.3 0.00 0.00 0.00 21 1011.3
20211016223404 27 250 6.4 14.5 0.00 0.00 0.00 21 1011.3
20211016222903 27 287 3.2 8.0 0.00 0.00 0.00 22 1011.3
20211016222406 27 340 3.2 9.7 0.00 0.00 0.00 21 1011.3
20211016221904 27 309 3.2 4.8 0.00 0.00 0.00 22 1011.3
20211016221404 27 294 4.8 14.5 0.00 0.00 0.00 22 1011.4
20211016220906 26 272 8.0 11.3 0.00 0.00 0.00 23 1011.4
20211016220404 26 269 4.8 11.3 0.00 0.00 0.00 23 1011.4
20211016215904 26 279 8.0 12.9 0.00 0.00 0.00 24 1011.6
20211016215406 25 266 8.0 19.3 0.00 0.00 0.00 25 1011.6
20211016214904 25 264 9.7 16.1 0.00 0.00 0.00 24 1011.6
20211016214404 25 256 8.0 19.3 0.00 0.00 0.00 26 1011.8
20211016213905 25 285 6.4 16.1 0.00 0.00 0.00 25 1011.8
20211016213404 25 274 9.7 19.3 0.00 0.00 0.00 26 1011.8
20211016212905 25 268 8.0 14.5 0.00 0.00 0.00 26 1011.9
20211016212406 25 268 8.0 19.3 0.00 0.00 0.00 27 1011.9
20211016211904 24 247 8.0 16.1 0.00 0.00 0.00 28 1011.9
20211016211404 24 270 11.3 19.3 0.00 0.00 0.00 27 1012.2
20211016210906 23 268 12.9 19.3 0.00 0.00 0.00 28 1012.2
20211016210403 24 264 11.3 19.3 0.00 0.00 0.00 28 1012.2
20211016205904 24 277 11.3 19.3 0.00 0.00 0.00 27 1012.4
20211016205406 24 274 9.7 19.3 0.00 0.00 0.00 29 1012.4
20211016204904 24 248 8.0 19.3 0.00 0.00 0.00 28 1012.4
20211016204404 24 262 9.7 16.1 0.00 0.00 0.00 26 1012.7
20211016203906 24 264 8.0 16.1 0.00 0.00 0.00 28 1012.7
20211016203404 24 295 8.0 14.5 0.00 0.00 0.00 30 1012.7
20211016202904 25 273 9.7 14.5 0.00 0.00 0.00 29 1012.8
20211016202405 25 246 11.3 19.3 0.00 0.00 0.00 30 1012.8
20211016201904 25 272 8.0 16.1 0.00 0.00 0.00 30 1012.8
20211016201404 26 273 4.8 9.7 0.00 0.00 0.00 29 1012.8
20211016200906 26 281 4.8 4.8 0.00 0.00 0.00 29 1012.8
20211016200404 25 284 1.6 4.8 0.00 0.00 0.00 28 1012.8
20211016195904 25 284 3.2 4.8 0.00 0.00 0.00 28 1013.3
20211016195405 25 285 3.2 4.8 0.00 0.00 0.00 28 1013.3
20211016194903 25 280 4.8 8.0 0.00 0.00 0.00 28 1013.3
20211016194404 25 260 4.8 8.0 0.00 0.00 0.00 28 1013.6
20211016193904 25 266 4.8 8.0 0.00 0.00 0.00 28 1013.6
20211016193404 25 274 4.8 8.0 0.00 0.00 0.00 27 1013.6
20211016192905 24 286 1.6 8.0 0.00 0.00 0.00 28 1013.9
20211016192404 24 277 3.2 11.3 0.00 0.00 0.00 28 1013.9
20211016191904 23 258 3.2 8.0 0.00 0.00 0.00 27 1013.9
20211016191406 23 267 4.8 11.3 0.00 0.00 0.00 28 1014.1
20211016190903 23 273 3.2 11.3 0.00 0.00 0.00 27 1014.1
20211016190404 23 254 4.8 9.7 0.00 0.00 0.00 28 1014.1
20211016185906 23 254 1.6 4.8 0.00 0.00 0.00 29 1014.3
20211016185404 23 265 4.8 8.0 0.00 0.00 0.00 29 1014.3
20211016184904 23 268 3.2 4.8 0.00 0.00 0.00 30 1014.3
20211016184406 23 266 1.6 4.8 0.00 0.00 0.00 30 1014.6
20211016183904 22 266 3.2 4.8 0.00 0.00 0.00 30 1014.6
20211016183404 22 3 1.6 4.8 0.00 0.00 0.00 31 1014.6
20211016182905 22 16 1.6 3.2 0.00 0.00 0.00 32 1014.6
20211016182404 21 6 1.6 4.8 0.00 0.00 0.00 32 1014.6
20211016181904 21 6 3.2 4.8 0.00 0.00 0.00 34 1014.6
20211016181406 21 275 1.6 4.8 0.00 0.00 0.00 35 1014.9
20211016180904 21 275 3.2 4.8 0.00 0.00 0.00 34 1014.9
20211016180404 21 279 1.6 4.8 0.00 0.00 0.00 34 1014.9
20211016175905 21 127 1.6 4.8 0.00 0.00 0.00 33 1015.0
20211016175404 21 143 1.6 4.8 0.00 0.00 0.00 34 1015.0
20211016174904 21 144 0.0 3.2 0.00 0.00 0.00 33 1015.0
20211016174406 21 144 3.2 4.8 0.00 0.00 0.00 34 1015.2
20211016173904 20 149 1.6 4.8 0.00 0.00 0.00 35 1015.2
20211016173404 20 149 1.6 4.8 0.00 0.00 0.00 34 1015.2
20211016172906 20 157 1.6 4.8 0.00 0.00 0.00 34 1015.2
20211016172404 20 111 1.6 4.8 0.00 0.00 0.00 36 1015.2
20211016171903 19 138 1.6 4.8 0.00 0.00 0.00 37 1015.2
20211016171406 19 142 3.2 8.0 0.00 0.00 0.00 35 1015.3
20211016170904 18 144 1.6 4.8 0.00 0.00 0.00 40 1015.3
20211016170404 18 144 1.6 4.8 0.00 0.00 0.00 40 1015.3
20211016165906 18 144 1.6 3.2 0.00 0.00 0.00 42 1015.3